Location: Ełk
(53.8214°N, 22.3622°E)
Time: 13:10:51
(UTC+01:00)

ISS - Pass Details

Date: 31 January 2019
Orbit: 403 x 411 km, 51.6° (Epoch: 23 February)

Event Time Altitude Azimuth Distance (km) Brightness Sun altitude
Rises 18:09:31 0° 265° (W) 2,336 1.8 -17.6°
Reaches altitude 10° 18:11:37 10° 261° (W) 1,477 0.3 -17.9°
Maximum altitude 18:14:53 60° 182° (S) 478 -3.5 -18.4°
Enters shadow 18:15:19 53° 143° (SE) 513 -3.6 -18.5°
